HST 1 20580U 90037B 25029.95454338 .00010112 00000-0 41235-3 0 9996 2 20580 28.4676 260.2939 0002663 6.9452 353.1178 15.22742027711575 ISS (ZARYA) 1 25544U 98067A 25030.28752407 .00017371 00000-0 30397-3 0 9999 2 25544 51.6396 270.0592 0002237 149.8639 318.8131 15.50711335493777 CXO 1 25867U 99040B 25031.93036384 .00000888 00000-0 00000-0 0 9991 2 25867 46.3828 136.9645 8617502 306.5684 1.0152 0.37801687 15438